Weather in Kurush

Russia / Republic of Dagestan     41°17′01″N   47°50′01″E
temp.,
°C
wind,
m/s
gust,
m/s
humid.,
%
clouds,
%
prec.,
mm/h
press.,
hPa
HPBL,
m
15 may, sat
sat1500:00+3s23808 0.0 102238
03:00+3s23831 0.0 102235
06:00+5ssw22770 0.0 1021108
09:00+10sw11574 0.0 10191090
12:00+11ssw226164 0.8 10191237
15:00+9ssw227297 3.3 1019821
18:00+7ssw118656 1.9 102078
21:00+4s23889 2.5 102253
16 may, sun
sun1600:00+4sse12784 0.0 102020
03:00+3sse23752 0.0 102027
06:00+5s34504 0.0 102087
09:00+9ssw43292 0.0 1018720
12:00+11ssw44320 0.0 10171100
15:00+10ssw44380 0.0 1016912
18:00+6s44560 0.0 1018253
21:00+3s34594 0.0 102055
17 may, mon
mon1700:00+3s34542 0.0 101853
03:00+4ssw344844 0.0 101748
06:00+8ssw335114 0.0 101579
09:00+13sw334510 0.0 1013938
12:00+14sw544267 0.0 10131469
15:00+14sw44410 0.0 10131464
18:00+11sw335935 0.0 101494
21:00+6ssw2468100 0.0 101757
18 may, tue
tue1800:00+8sse2351100 0.1 101537
03:00+7se235111 0.1 101432
06:00+10se23542 0.1 101367
09:00+12s484974 0.4 10121385
12:00+12s6104948 0.8 10121882
15:00+10ssw566553 2.2 10131138
18:00+6sw118797 4.1 1015206
21:00+3sse029094 5.4 101841
19 may, wed
wed1900:00+5ne018099 0.1 101612
03:00+3ssw12840 0.1 101620
06:00+5n11750 0.0 1017114
09:00+9wnw126420 0.1 10161042
12:00+10sw127196 1.1 10171030
15:00+9wsw127883 2.1 1018683
18:00+8sw227438 0.2 1019387
21:00+4s02780 0.2 102123